Previsão horária em Kabak

Hoje, 14 Junho, Segunda-feira

Tempo Temperatura Precipitação Vento Pressão Humidade
00:00 +14°C° 0 mm 4 m/s 744 mmHg 84%
01:00 +13°C° 0 mm 4 m/s 744 mmHg 89%
02:00 +13°C° 0 mm 4 m/s 745 mmHg 94%
03:00 +13°C° 0 mm 4 m/s 745 mmHg 93%
04:00 +13°C° 0 mm 4 m/s 745 mmHg 92%
05:00 +13°C° 0 mm 4 m/s 746 mmHg 91%
06:00 +14°C° 0 mm 4 m/s 746 mmHg 87%
07:00 +15°C° 0 mm 4 m/s 747 mmHg 83%
08:00 +17°C° 0 mm 4 m/s 747 mmHg 79%
09:00 +18°C° 0 mm 4 m/s 747 mmHg 74%
10:00 +20°C° 0 mm 3 m/s 748 mmHg 69%
11:00 +21°C° 0 mm 3 m/s 748 mmHg 63%
12:00 +22°C° 0 mm 3 m/s 748 mmHg 61%
13:00 +23°C° 0 mm 2 m/s 748 mmHg 60%
14:00 +24°C° 0 mm 2 m/s 748 mmHg 58%
15:00 +24°C° 0 mm 2 m/s 748 mmHg 59%
16:00 +24°C° 0 mm 2 m/s 748 mmHg 61%
17:00 +24°C° 0 mm 2 m/s 748 mmHg 62%
18:00 +21°C° 0 mm 2 m/s 748 mmHg 68%
19:00 +20°C° 0 mm 2 m/s 748 mmHg 74%
20:00 +20°C° 0 mm 1 m/s 748 mmHg 80%
21:00 +19°C° 0 mm 1 m/s 748 mmHg 82%
22:00 +18°C° 0 mm 1 m/s 748 mmHg 84%
23:00 +16°C° 0 mm 1 m/s 748 mmHg 86%

Amanhã, 15 Junho, Terça-feira

Tempo Temperatura Precipitação Vento Pressão Humidade
00:00 +15°C° 0 mm 1 m/s 748 mmHg 86%
01:00 +15°C° 0 mm 1 m/s 747 mmHg 86%
02:00 +14°C° 0 mm 1 m/s 747 mmHg 86%
03:00 +15°C° 0 mm 1 m/s 747 mmHg 84%
04:00 +15°C° 0 mm 1 m/s 747 mmHg 82%
05:00 +15°C° 0 mm 1 m/s 747 mmHg 80%
06:00 +16°C° 0 mm 2 m/s 747 mmHg 77%
07:00 +17°C° 0 mm 2 m/s 747 mmHg 73%
08:00 +18°C° 0 mm 2 m/s 747 mmHg 70%
09:00 +19°C° 0 mm 2 m/s 747 mmHg 64%
10:00 +20°C° 0 mm 3 m/s 747 mmHg 58%
11:00 +22°C° 0 mm 3 m/s 747 mmHg 52%
12:00 +22°C° 0 mm 3 m/s 747 mmHg 50%
13:00 +23°C° 0 mm 4 m/s 747 mmHg 48%
14:00 +25°C° 0 mm 4 m/s 746 mmHg 46%
15:00 +23°C° 0 mm 4 m/s 746 mmHg 51%
16:00 +24°C° 0 mm 3 m/s 746 mmHg 56%
17:00 +24°C° 0 mm 3 m/s 746 mmHg 61%
18:00 +21°C° 0.1 mm 3 m/s 746 mmHg 69%
19:00 +20°C° 0.1 mm 3 m/s 746 mmHg 78%
20:00 +18°C° 0.1 mm 2 m/s 746 mmHg 86%
21:00 +17°C° 0 mm 2 m/s 746 mmHg 89%
22:00 +17°C° 0 mm 2 m/s 746 mmHg 92%
23:00 +16°C° 0 mm 2 m/s 746 mmHg 95%

Depois de amanhã, 16 Junho, Quarta-feira

Tempo Temperatura Precipitação Vento Pressão Humidade
00:00 +15°C° 0 mm 2 m/s 747 mmHg 96%
01:00 +13°C° 0 mm 3 m/s 747 mmHg 96%
02:00 +12°C° 0 mm 3 m/s 747 mmHg 96%
03:00 +12°C° 0 mm 3 m/s 748 mmHg 95%
04:00 +11°C° 0 mm 3 m/s 748 mmHg 93%
05:00 +10°C° 0 mm 3 m/s 748 mmHg 91%
06:00 +12°C° 0 mm 3 m/s 749 mmHg 82%
07:00 +14°C° 0 mm 3 m/s 749 mmHg 73%
08:00 +16°C° 0 mm 3 m/s 749 mmHg 63%
09:00 +17°C° 0 mm 2 m/s 749 mmHg 58%
10:00 +18°C° 0 mm 2 m/s 750 mmHg 53%
11:00 +20°C° 0 mm 2 m/s 750 mmHg 48%
12:00 +20°C° 0 mm 2 m/s 750 mmHg 46%
13:00 +21°C° 0 mm 2 m/s 750 mmHg 45%
14:00 +23°C° 0 mm 2 m/s 750 mmHg 43%
15:00 +23°C° 0 mm 2 m/s 750 mmHg 45%
16:00 +23°C° 0 mm 2 m/s 750 mmHg 47%
17:00 +23°C° 0 mm 2 m/s 750 mmHg 49%
18:00 +21°C° 0 mm 1 m/s 750 mmHg 57%
19:00 +20°C° 0 mm 1 m/s 751 mmHg 65%
20:00 +18°C° 0 mm 1 m/s 751 mmHg 73%
21:00 +16°C° 0 mm 1 m/s 751 mmHg 75%
22:00 +14°C° 0 mm 1 m/s 751 mmHg 78%
23:00 +13°C° 0 mm 1 m/s 752 mmHg 80%

17 Junho, Quinta-feira

Tempo Temperatura Precipitação Vento Pressão Humidade
00:00 +13°C° 0 mm 1 m/s 752 mmHg 80%
01:00 +12°C° 0 mm 1 m/s 753 mmHg 79%
02:00 +12°C° 0 mm 1 m/s 753 mmHg 79%
03:00 +12°C° 0 mm 1 m/s 753 mmHg 78%
04:00 +12°C° 0 mm 1 m/s 753 mmHg 77%
05:00 +13°C° 0 mm 1 m/s 754 mmHg 77%
06:00 +15°C° 0 mm 1 m/s 754 mmHg 71%
07:00 +18°C° 0 mm 1 m/s 754 mmHg 64%
08:00 +20°C° 0 mm 1 m/s 754 mmHg 58%
09:00 +20°C° 0 mm 2 m/s 754 mmHg 55%
10:00 +21°C° 0 mm 2 m/s 754 mmHg 51%
11:00 +24°C° 0 mm 2 m/s 755 mmHg 48%
12:00 +24°C° 0 mm 2 m/s 755 mmHg 47%
13:00 +25°C° 0 mm 2 m/s 755 mmHg 46%
14:00 +25°C° 0 mm 2 m/s 755 mmHg 45%
15:00 +25°C° 0 mm 2 m/s 754 mmHg 48%
16:00 +25°C° 0 mm 2 m/s 754 mmHg 50%
17:00 +25°C° 0 mm 2 m/s 754 mmHg 52%
18:00 +24°C° 0 mm 2 m/s 754 mmHg 60%
19:00 +21°C° 0 mm 2 m/s 754 mmHg 68%
20:00 +19°C° 0 mm 2 m/s 754 mmHg 77%
21:00 +18°C° 0 mm 2 m/s 755 mmHg 80%
22:00 +17°C° 0 mm 2 m/s 755 mmHg 83%
23:00 +16°C° 0 mm 2 m/s 755 mmHg 86%

18 Junho, Sexta-feira

Tempo Temperatura Precipitação Vento Pressão Humidade
00:00 +15°C° 0 mm 2 m/s 755 mmHg 87%
01:00 +15°C° 0 mm 2 m/s 755 mmHg 88%
02:00 +14°C° 0 mm 2 m/s 755 mmHg 89%
03:00 +15°C° 0 mm 2 m/s 755 mmHg 88%
04:00 +15°C° 0 mm 2 m/s 755 mmHg 87%
05:00 +15°C° 0 mm 2 m/s 755 mmHg 86%
06:00 +17°C° 0 mm 2 m/s 755 mmHg 80%
07:00 +19°C° 0 mm 2 m/s 755 mmHg 74%
08:00 +21°C° 0 mm 2 m/s 756 mmHg 68%
09:00 +22°C° 0 mm 3 m/s 756 mmHg 63%
10:00 +25°C° 0 mm 3 m/s 756 mmHg 58%
11:00 +26°C° 0 mm 4 m/s 756 mmHg 53%
12:00 +26°C° 0 mm 4 m/s 755 mmHg 51%
13:00 +27°C° 0 mm 4 m/s 755 mmHg 49%
14:00 +27°C° 0 mm 4 m/s 755 mmHg 47%
15:00 +27°C° 0 mm 3 m/s 755 mmHg 49%
16:00 +27°C° 0 mm 3 m/s 755 mmHg 52%
17:00 +27°C° 0 mm 3 m/s 754 mmHg 55%
18:00 +25°C° 0 mm 3 m/s 754 mmHg 63%
19:00 +22°C° 0 mm 3 m/s 754 mmHg 72%
20:00 +20°C° 0 mm 2 m/s 754 mmHg 80%
21:00 +19°C° 0 mm 2 m/s 754 mmHg 83%
22:00 +18°C° 0 mm 2 m/s 755 mmHg 86%
23:00 +17°C° 0 mm 2 m/s 755 mmHg 88%

19 Junho, Sábado

Tempo Temperatura Precipitação Vento Pressão Humidade
00:00 +16°C° 0 mm 2 m/s 755 mmHg 89%
01:00 +16°C° 0 mm 2 m/s 755 mmHg 90%
02:00 +15°C° 0 mm 2 m/s 755 mmHg 92%
03:00 +16°C° 0 mm 2 m/s 755 mmHg 91%
04:00 +16°C° 0 mm 2 m/s 755 mmHg 91%
05:00 +16°C° 0 mm 2 m/s 755 mmHg 90%
06:00 +18°C° 0 mm 2 m/s 755 mmHg 83%
07:00 +20°C° 0 mm 3 m/s 756 mmHg 76%
08:00 +22°C° 0 mm 3 m/s 756 mmHg 69%
09:00 +24°C° 0 mm 3 m/s 756 mmHg 64%
10:00 +26°C° 0 mm 3 m/s 755 mmHg 58%
11:00 +27°C° 0 mm 3 m/s 755 mmHg 53%
12:00 +27°C° 0 mm 3 m/s 755 mmHg 51%
13:00 +28°C° 0 mm 3 m/s 755 mmHg 49%
14:00 +29°C° 0 mm 3 m/s 755 mmHg 46%
15:00 +28°C° 0 mm 3 m/s 755 mmHg 49%
16:00 +28°C° 0 mm 3 m/s 754 mmHg 51%
17:00 +28°C° 0 mm 3 m/s 754 mmHg 54%
18:00 +26°C° 0 mm 2 m/s 754 mmHg 63%
19:00 +25°C° 0 mm 2 m/s 754 mmHg 71%
20:00 +23°C° 0 mm 2 m/s 754 mmHg 80%
21:00 +21°C° 0 mm 2 m/s 754 mmHg 83%
22:00 +19°C° 0 mm 2 m/s 754 mmHg 86%
23:00 +18°C° 0 mm 2 m/s 754 mmHg 89%
Mostrar mais

Necessitamos do seu Consentimento

A Meteoprog e os seus Fornecedores de Serviços podem armazenar e aceder a dados pessoais como cookies, identificadores do dispositivo ou outras tecnologias semelhantes existentes no seu dispositivo e processar estes dados para personalizar conteúdos e anúncios, assim como funcionalidades nas redes sociais e análise de tráfego.

  • Armazenar e/ou aceder a informações no seu dispositivo

    Os cookies, identificadores do dispositivo ou outras informações podem ser armazenados ou acedidos no seu dispositivo, para os fins acima indicados.

  • Anúncios e conteúdos personalizados, medição de anúncios e conteúdos, dados sobre o público-alvo e desenvolvimento de produtos

    Os anúncios e os conteúdos podem ser personalizados com base num perfil. Podem ser adicionados dados adicionais para uma maior personalização dos anúncios e dos conteúdos. A eficácia dos anúncios e dos conteúdos pode ser medida. Podem ser obtidas informações sobre o público que visualizou os anúncios e os conteúdos. Estes dados podem ser usados para desenvolver ou melhorar sistemas, softwares ou a experiência do utilizador.

Ao clicar em "Eu concordo”, permitirá o uso de cookies, identificadores do dispositivo e web beacons mencionados ou outras tecnologias semelhantes. As configurações do navegador do seu dispositivo podem ser alteradas.

Para certos fins, podem ser invocados interesses legítimos ao invés de consentimento. Pode ler mais informação sobre este assunto na nossa Política de Privacidade e Cookies.